Weather in Semyinskoye

Russia / Vladimir Oblast     56°21′53″N   39°45′52″E
temp.,
°C
wind,
m/s
gust,
m/s
humid.,
%
clouds,
%
prec.,
mm/h
press.,
hPa
HPBL,
m
22 september, wed
wed2200:00+5ene61292100 1.4 1013551
03:00+5ene51196100 5.8 1013618
06:00+5ene61195100 2.3 1012588
09:00+5ene51096100 2.3 1012579
12:00+5ene4996100 0.5 1012531
15:00+6ene4895100 0.8 1012524
18:00+6e3798100 0.2 1013323
21:00+7se249866 0.2 1015150
23 september, thu
thu2300:00+7ene2497100 0.0 1015116
03:00+6ene3797100 0.3 1015235
06:00+6ene3897100 0.1 1015215
09:00+7ene4798100 1.0 1014221
12:00+8e4798100 1.1 1013482
15:00+8e2498100 1.4 1013322
18:00+8sse2599100 0.1 1012209
21:00+7sse3697100 0.1 1011153
24 september, fri
fri2400:00+7sse3796100 0.0 1010173
03:00+7sse389685 0.0 1009227
06:00+5sse41096100 0.0 1008240
09:00+7sse41089100 0.0 1008565
12:00+8sse61080100 0.1 10071016
15:00+10sse7107164 0.3 10061217
18:00+8sse51078100 0.1 1006627
21:00+8sse5118141 0.3 1006601
25 september, sat
sat2500:00+7se31084100 0.0 1006324
03:00+7se369124 0.1 1003153
06:00+7se3783100 0.0 1007215
09:00+8se3779100 0.0 1008353
12:00+11s4667100 0.0 1008854
15:00+11ssw2471100 0.0 1009580
18:00+8sw2284100 0.0 100947
21:00+8sw2285100 0.0 101038
26 september, sun
sun2600:00+8sw2388100 0.0 100963
03:00+7s2291100 0.0 100925
06:00+7sw1193100 0.0 101010
09:00+9nne1281100 0.0 1010207
12:00+9nnw1284100 0.2 1011152
15:00+10nnw3476100 0.3 1013451
18:00+9n368297 0.1 1014152
21:00+7n3790100 0.1 1016152